Terug naar catalogus

IUS R/B(2)

ActiefGEO
NORAD 19550·ROCKET BODY·🇺🇸 United States

Gelanceerd Sep 29, 1988 vanaf Cape Canaveral Space Force Station

Loading…

TLE

VersSource: Space-Track

Epoch: Aug 27, 2026, 22:30 UTC

1 19550U 88091D   26239.93769884  .00000041  00000-0  00000+0 0  9996
2 19550  12.1279 330.4812 0020389 306.3325  90.8769  1.00487323130831

Volg IUS R/B(2) in realtime met AllMySat

Download on the App Store